Starlink 11400

operational
NORAD ID: 63017 Int'l Des: 2025-032 Owner: SPXS Country: US Constellation: starlink
LEOCIRCULAR

Starlink 11400について

説明を読み込み中...

リアルタイム位置

3D地球を読み込み中...

次回通過

高度履歴

Altitude vs Time

uPlot chart will show altitude changes over time

軌道要素

1 63017U 25032N 25353.27275268 .00220961 00000-0 16770-2 0 9999
2 63017 43.0001 320.3027 0001761 272.2265 87.8401 15.70884410 49565
Epoch: Dec 19, 2025 • Age: 15 hours

現在のステータス

高度 356.1 km
速度 7.70 km/s
衛星直下点 -6.55°S, 105.75°W
打ち上げ日 Feb 15, 2025
運用期間 0.8 years
タイプ internet

技術仕様

分類 Payload
質量 960.00 kg
乾燥質量 910.00 kg
総質量 960.00 kg
長さ 0.30 m
直径 4.10 m
スパン 29.00 m
形状 Box + pan
製造者 SPXS
バスタイプ Starlink V2MD
フェーズステータス In Orbit
所有者/国 SPXS/US

大規模コンステレーション

Loading constellations...